UAE245 FACT-FXMM

Flight info

Callsign UAE245
Flight time N/A
Altitude 25000
Route TETA1A TETAN UZ39 TEXIS Z39 EGRUP UZ39 BLV UW61 MZV
Aircraft A333/H-VGD/A

Departure

Time N/A
Airport Cape Town International Airport (FACT)

Arrival

Time 2026-04-30 18:17
Airport Moshoeshoe I International Airport (FXMM)
Time Latitude Longitude Altitude Speed Heading
2026-04-30 17:39 -30.24687 24.68868 21003 ft 432 kts 42°
2026-04-30 17:41 -30.08627 24.87384 10229 ft 382 kts 39°
2026-04-30 17:42 -30.04664 24.91294 9552 ft 376 kts 40°
2026-04-30 17:42 -29.98688 24.97266 9532 ft 389 kts 39°
2026-04-30 17:43 -29.94764 25.01170 9417 ft 367 kts 40°
2026-04-30 17:44 -29.89296 25.06677 9412 ft 341 kts 41°
2026-04-30 17:44 -29.83969 25.11892 9065 ft 328 kts 40°
2026-04-30 17:46 -29.77101 25.22341 9067 ft 346 kts 50°
2026-04-30 17:47 -29.71112 25.31218 9063 ft 354 kts 50°
2026-04-30 17:48 -29.65097 25.40168 9058 ft 356 kts 51°
2026-04-30 17:48 -29.60552 25.46924 9048 ft 357 kts 50°
2026-04-30 17:49 -29.54627 25.55968 8780 ft 345 kts 50°
2026-04-30 17:50 -29.48735 25.64521 7121 ft 347 kts 51°
2026-04-30 17:51 -29.44166 25.71164 7099 ft 349 kts 52°
2026-04-30 17:52 -29.39908 25.77867 7112 ft 346 kts 52°
2026-04-30 17:53 -29.33060 25.89204 7101 ft 344 kts 54°
2026-04-30 17:54 -29.27766 25.98161 7113 ft 338 kts 54°
2026-04-30 17:55 -29.27938 26.08173 6868 ft 336 kts 127°
2026-04-30 17:56 -29.28454 26.08856 6666 ft 336 kts 131°
2026-04-30 17:57 -29.37177 26.22026 5827 ft 302 kts 114°
2026-04-30 17:58 -29.39986 26.29212 6199 ft 348 kts 111°
2026-04-30 17:59 -29.42858 26.38555 6423 ft 299 kts 107°
2026-04-30 18:00 -29.45587 26.47617 6422 ft 301 kts 106°
2026-04-30 18:00 -29.47884 26.54220 6418 ft 301 kts 113°
2026-04-30 18:01 -29.49700 26.58592 5821 ft 305 kts 112°
2026-04-30 18:02 -29.52213 26.65033 5947 ft 290 kts 107°
2026-04-30 18:02 -29.54369 26.71607 5991 ft 295 kts 107°
2026-04-30 18:03 -29.56352 26.78309 6005 ft 294 kts 107°
2026-04-30 18:04 -29.58296 26.85019 6004 ft 296 kts 103°
2026-04-30 18:05 -29.60487 26.94088 5990 ft 283 kts 103°
2026-04-30 18:06 -29.62443 27.02192 6000 ft 257 kts 102°
2026-04-30 18:07 -29.64355 27.10134 5988 ft 257 kts 102°
2026-04-30 18:08 -29.65602 27.16060 5984 ft 253 kts 97°
2026-04-30 18:09 -29.66846 27.24039 5999 ft 254 kts 98°
2026-04-30 18:10 -29.66224 27.31459 6039 ft 242 kts 57°
2026-04-30 18:11 -29.64310 27.38844 6006 ft 239 kts 73°
2026-04-30 18:11 -29.62821 27.44342 5998 ft 240 kts 68°
2026-04-30 18:12 -29.60862 27.49580 6021 ft 237 kts 53°
2026-04-30 18:14 -29.62695 27.50127 7405 ft 205 kts 11°
2026-04-30 18:15 -29.57901 27.51351 6971 ft 254 kts
2026-04-30 18:15 -29.52937 27.52950 6973 ft 249 kts 22°
2026-04-30 18:16 -29.49835 27.54658 6058 ft 240 kts 24°
2026-04-30 18:16 -29.46909 27.55166 5479 ft 199 kts 359°
2026-04-30 18:17 -29.45647 27.55390 5505 ft 174 kts 21°
2026-04-30 18:17 -29.44585 27.55751 5368 ft 119 kts 18°
2026-04-30 18:17 -29.44245 27.55879 5352 ft 5 kts 21°
2026-04-30 18:18 -29.44198 27.55891 5349 ft 5 kts 334°
2026-04-30 18:18 -29.44214 27.55861 5352 ft 6 kts 188°
2026-04-30 18:18 -29.44262 27.55854 5354 ft 6 kts 188°
2026-04-30 18:18 -29.44305 27.55846 5356 ft 10 kts 189°
2026-04-30 18:19 -29.44403 27.55818 5360 ft 18 kts 192°
2026-04-30 18:19 -29.44554 27.55773 5366 ft 26 kts 193°
2026-04-30 18:19 -29.44734 27.55715 5372 ft 25 kts 197°
2026-04-30 18:19 -29.44900 27.55649 5375 ft 25 kts 198°
2026-04-30 18:20 -29.45067 27.55603 5376 ft 24 kts 193°
2026-04-30 18:20 -29.45235 27.55558 5378 ft 24 kts 193°
2026-04-30 18:20 -29.45404 27.55506 5375 ft 26 kts 192°
2026-04-30 18:20 -29.45514 27.55599 5380 ft 19 kts 102°
2026-04-30 18:21 -29.45536 27.55729 5385 ft 13 kts 79°
2026-04-30 18:21 -29.45499 27.55775 5386 ft 4 kts 86°
2026-04-30 18:21 -29.45510 27.55798 5387 ft 1 kts 143°
2026-04-30 18:21 -29.45525 27.55805 5387 ft 2 kts 154°
2026-04-30 18:22 -29.45547 27.55818 5387 ft 4 kts 155°
2026-04-30 18:22 -29.45549 27.55818 5387 ft 0 kts 155°